TimeCDT,TemperatureF,Dew PointF,Humidity,Sea Level PressureIn,VisibilityMPH,Wind Direction,Wind SpeedMPH,Gust SpeedMPH,PrecipitationIn,Events,Conditions,WindDirDegrees,DateUTC
12:58 AM,80.8,77.4,89,29.94,10.0,South,4.6,-,0.01,,Clear,170,2013-08-07 05:58:00
1:58 AM,82.4,75.7,80,29.93,10.0,SE,4.6,-,N/A,,Clear,140,2013-08-07 06:58:00
2:58 AM,78.8,76.3,92,29.94,10.0,NE,4.6,-,N/A,,Clear,40,2013-08-07 07:58:00
3:28 AM,77.0,75.2,94,29.93,10.0,NE,3.5,-,N/A,,Mostly Cloudy,40,2013-08-07 08:28:00
3:43 AM,77.0,75.2,94,29.93,10.0,NNE,3.5,-,N/A,,Mostly Cloudy,30,2013-08-07 08:43:00
3:58 AM,77.7,75.2,92,29.94,10.0,Calm,Calm,-,N/A,,Overcast,0,2013-08-07 08:58:00
4:13 AM,77.0,75.2,94,29.93,10.0,North,1.2,-,N/A,,Scattered Clouds,10,2013-08-07 09:13:00
4:58 AM,76.3,74.5,94,29.94,10.0,North,4.6,-,N/A,,Clear,10,2013-08-07 09:58:00
5:58 AM,75.9,74.1,94,29.94,10.0,Calm,Calm,-,N/A,,Clear,0,2013-08-07 10:58:00
6:58 AM,76.1,74.7,95,29.97,10.0,NE,3.5,-,N/A,,Clear,50,2013-08-07 11:58:00
7:58 AM,78.8,76.3,92,29.98,10.0,Calm,Calm,-,N/A,,Clear,0,2013-08-07 12:58:00
8:58 AM,82.9,77.2,83,29.99,10.0,Calm,Calm,-,N/A,,Clear,0,2013-08-07 13:58:00
9:58 AM,86.0,76.6,73,29.99,10.0,Variable,1.2,-,N/A,,Clear,0,2013-08-07 14:58:00
10:58 AM,88.3,76.3,67,30.00,10.0,Calm,Calm,-,N/A,,Clear,0,2013-08-07 15:58:00
11:58 AM,90.3,78.4,68,29.99,10.0,South,6.9,-,N/A,,Clear,190,2013-08-07 16:58:00
12:58 PM,91.4,78.6,66,29.97,10.0,SSW,8.1,-,N/A,,Clear,210,2013-08-07 17:58:00
2:57 PM,84.2,80.6,89,29.95,10.0,Calm,Calm,-,N/A,Thunderstorm,Light Drizzle,0,2013-08-07 19:57:00
3:19 PM,84.2,80.6,89,29.95,10.0,North,2.3,-,N/A,Thunderstorm,Partly Cloudy,10,2013-08-07 20:19:00
3:58 PM,85.8,78.4,78,29.94,10.0,South,5.8,-,0.00,,Clear,190,2013-08-07 20:58:00
4:10 PM,86.0,78.8,79,29.94,10.0,South,5.8,-,N/A,Thunderstorm,Thunderstorm,180,2013-08-07 21:10:00
4:25 PM,86.0,78.8,79,29.92,10.0,SSW,5.8,-,N/A,Thunderstorm,Clear,200,2013-08-07 21:25:00
4:50 PM,84.2,80.6,89,29.92,10.0,NNE,4.6,-,N/A,,Mostly Cloudy,30,2013-08-07 21:50:00
4:58 PM,84.7,80.2,86,29.93,10.0,North,2.3,-,N/A,,Mostly Cloudy,10,2013-08-07 21:58:00
5:23 PM,86.0,80.6,84,29.92,10.0,Calm,Calm,-,N/A,,Scattered Clouds,0,2013-08-07 22:23:00
5:58 PM,86.0,79.0,79,29.92,10.0,Calm,Calm,-,N/A,,Clear,0,2013-08-07 22:58:00
6:58 PM,86.0,78.1,77,29.92,10.0,South,4.6,-,N/A,,Clear,190,2013-08-07 23:58:00
7:58 PM,85.3,77.5,78,29.92,10.0,WSW,1.2,-,N/A,,Clear,240,2013-08-08 00:58:00
8:58 PM,85.5,77.2,76,29.93,10.0,South,3.5,-,N/A,,Clear,170,2013-08-08 01:58:00
9:58 PM,85.3,77.7,78,29.96,10.0,SSE,4.6,-,N/A,,Clear,160,2013-08-08 02:58:00
10:58 PM,85.1,78.4,80,29.96,10.0,North,-9999.0,-,N/A,,Clear,0,2013-08-08 03:58:00
11:58 PM,84.6,77.7,80,29.95,10.0,SSE,3.5,-,N/A,,Clear,150,2013-08-08 04:58:00